{"data":{"norad_id":56793,"intl_designator":"2023-078AC","name":"STARLINK-6052","alt_names":[],"object_type":"PAYLOAD","status":"ACTIVE","operator":null,"country":"US","launch_date":"2023-05-31","launch_site_code":"AFWTR","launch_vehicle":null,"mission":null,"orbit_class":"UNKNOWN","rcs_meters":null,"size_class":null,"mass_kg":null,"dimensions":null,"purposes":["comms"],"wikipedia_slug":null,"has_3d_model":false,"image_url":null,"decayed_at":null,"tle_current":{"epoch":"2026-09-20T06:01:28.566048Z","epoch_age_seconds":136445,"freshness":"FRESH","line1":"1 56793U 23078AC  26263.25102507  .00000777  00000+0  72951-4 0  9999","line2":"2 56793  69.9994 213.8949 0003234 262.7607  97.3184 14.98327669181823","mean_motion":14.98327669,"eccentricity":0.0003234,"inclination_deg":69.9994,"raan_deg":213.8949,"arg_perigee_deg":262.7607,"mean_anomaly_deg":97.3184,"bstar":7.2951e-5,"rev_number":18182,"period_min":96.107148642664,"perigee_km":569.81540466684,"apogee_km":574.31079409112,"semimajor_km":6950.200099379,"source":"CELESTRAK","updated_at":"2026-09-21T09:00:33.508440Z"}}}